PRIVATE WETTERSTATION BILLIGHEIM-ALLFELD                       ZURCK
Wetterdaten: Mittwoch, 01.02.2017
Datum Zeit Temp. A. Temp. A. min Temp. A. max Feuchte A. Luftdruck Regen Wind Richtung Richtung Sonnenschein ET Solar Taupunkt Windchill Windben Empfang
01.02.2017 00:00 1,0 C 1,0 C 1,1 C 89 % 1018,5 hPa 0,0 l/m 0,0 km/h (0 Bft) N 0 0 min 0,000 mm 0 W/m -0,6 C 1,0 C 0,0 km/h (0 Bft) 97 %
01.02.2017 00:10 1,0 C 1,0 C 1,0 C 89 % 1018,7 hPa 0,0 l/m 0,0 km/h (0 Bft) N-NO 22 0 min 0,000 mm 0 W/m -0,6 C 1,0 C 6,4 km/h (2 Bft) 98 %
01.02.2017 00:20 1,0 C 1,0 C 1,0 C 88 % 1018,6 hPa 0,0 l/m 0,0 km/h (0 Bft) N 0 0 min 0,000 mm 0 W/m -0,8 C 1,0 C 0,0 km/h (0 Bft) 98 %
01.02.2017 00:30 0,9 C 0,9 C 1,0 C 88 % 1018,6 hPa 0,0 l/m 0,0 km/h (0 Bft) N 0 0 min 0,000 mm 0 W/m -0,9 C 0,9 C 0,0 km/h (0 Bft) 87 %
01.02.2017 00:40 0,8 C 0,8 C 0,9 C 88 % 1018,6 hPa 0,0 l/m 0,0 km/h (0 Bft) N 0 0 min 0,000 mm 0 W/m -1,0 C 0,8 C 0,0 km/h (0 Bft) 98 %
01.02.2017 00:50 0,8 C 0,8 C 0,8 C 88 % 1018,7 hPa 0,0 l/m 0,0 km/h (0 Bft) N 0 0 min 0,000 mm 0 W/m -1,0 C 0,8 C 0,0 km/h (0 Bft) 97 %
01.02.2017 01:00 0,8 C 0,8 C 0,8 C 88 % 1018,7 hPa 0,0 l/m 0,0 km/h (0 Bft) N 0 0 min 0,000 mm 0 W/m -1,0 C 0,8 C 0,0 km/h (0 Bft) 98 %
01.02.2017 01:10 0,8 C 0,8 C 0,8 C 88 % 1018,7 hPa 0,0 l/m 0,0 km/h (0 Bft) N-NO 22 0 min 0,000 mm 0 W/m -1,0 C 0,8 C 1,6 km/h (1 Bft) 97 %
01.02.2017 01:20 0,8 C 0,8 C 0,8 C 88 % 1018,5 hPa 0,0 l/m 0,0 km/h (0 Bft) NO 45 0 min 0,000 mm 0 W/m -1,0 C 0,8 C 3,2 km/h (1 Bft) 98 %
01.02.2017 01:30 0,7 C 0,7 C 0,8 C 88 % 1018,6 hPa 0,0 l/m 0,0 km/h (0 Bft) N 0 0 min 0,000 mm 0 W/m -1,1 C 0,7 C 0,0 km/h (0 Bft) 98 %
01.02.2017 01:40 0,6 C 0,6 C 0,7 C 88 % 1018,5 hPa 0,0 l/m 0,0 km/h (0 Bft) N 0 0 min 0,000 mm 0 W/m -1,2 C 0,6 C 0,0 km/h (0 Bft) 97 %
01.02.2017 01:50 0,4 C 0,4 C 0,6 C 88 % 1018,5 hPa 0,0 l/m 0,0 km/h (0 Bft) N 0 0 min 0,000 mm 0 W/m -1,3 C 0,4 C 0,0 km/h (0 Bft) 89 %
01.02.2017 02:00 0,3 C 0,3 C 0,4 C 88 % 1018,5 hPa 0,0 l/m 0,0 km/h (0 Bft) N 0 0 min 0,000 mm 0 W/m -1,4 C 0,3 C 0,0 km/h (0 Bft) 96 %
01.02.2017 02:10 0,2 C 0,2 C 0,3 C 88 % 1018,5 hPa 0,0 l/m 0,0 km/h (0 Bft) NO 45 0 min 0,000 mm 0 W/m -1,5 C 0,2 C 1,6 km/h (1 Bft) 97 %
01.02.2017 02:20 0,1 C 0,1 C 0,2 C 88 % 1018,5 hPa 0,0 l/m 0,0 km/h (0 Bft) N 0 0 min 0,000 mm 0 W/m -1,6 C 0,1 C 0,0 km/h (0 Bft) 98 %
01.02.2017 02:30 0,0 C 0,0 C 0,1 C 89 % 1018,5 hPa 0,0 l/m 0,0 km/h (0 Bft) NO 45 0 min 0,000 mm 0 W/m -1,6 C 0,0 C 3,2 km/h (1 Bft) 97 %
01.02.2017 02:40 0,0 C -0,1 C 0,1 C 89 % 1018,5 hPa 0,0 l/m 0,0 km/h (0 Bft) NO 45 0 min 0,000 mm 0 W/m -1,6 C 0,0 C 3,2 km/h (1 Bft) 98 %
01.02.2017 02:50 -0,1 C -0,1 C 0,0 C 89 % 1018,5 hPa 0,0 l/m 0,0 km/h (0 Bft) NO 45 0 min 0,000 mm 0 W/m -1,7 C -0,1 C 1,6 km/h (1 Bft) 98 %
01.02.2017 03:00 -0,2 C -0,2 C -0,1 C 89 % 1018,6 hPa 0,0 l/m 0,0 km/h (0 Bft) NO 45 0 min 0,000 mm 0 W/m -1,8 C -0,2 C 8,0 km/h (2 Bft) 100 %
01.02.2017 03:10 -0,2 C -0,2 C -0,1 C 89 % 1018,6 hPa 0,0 l/m 0,0 km/h (0 Bft) NO 45 0 min 0,000 mm 0 W/m -1,8 C -0,2 C 1,6 km/h (1 Bft) 100 %
01.02.2017 03:20 -0,2 C -0,2 C -0,2 C 90 % 1018,6 hPa 0,0 l/m 0,0 km/h (0 Bft) NO 45 0 min 0,000 mm 0 W/m -1,6 C -0,2 C 1,6 km/h (1 Bft) 100 %
01.02.2017 03:30 -0,2 C -0,2 C -0,1 C 90 % 1018,4 hPa 0,0 l/m 0,0 km/h (0 Bft) NO 45 0 min 0,000 mm 0 W/m -1,6 C -0,2 C 4,8 km/h (1 Bft) 100 %
01.02.2017 03:40 -0,2 C -0,2 C -0,2 C 90 % 1018,5 hPa 0,0 l/m 0,0 km/h (0 Bft) N 0 0 min 0,000 mm 0 W/m -1,6 C -0,2 C 0,0 km/h (0 Bft) 100 %
01.02.2017 03:50 -0,2 C -0,2 C -0,2 C 90 % 1018,3 hPa 0,0 l/m 0,0 km/h (0 Bft) NO 45 0 min 0,000 mm 0 W/m -1,6 C -0,2 C 4,8 km/h (1 Bft) 100 %
01.02.2017 04:00 -0,2 C -0,2 C -0,2 C 90 % 1018,3 hPa 0,0 l/m 0,0 km/h (0 Bft) NO 45 0 min 0,000 mm 0 W/m -1,6 C -0,2 C 1,6 km/h (1 Bft) 100 %
01.02.2017 04:10 -0,3 C -0,3 C -0,2 C 90 % 1018,4 hPa 0,0 l/m 0,0 km/h (0 Bft) NO 45 0 min 0,000 mm 0 W/m -1,7 C -0,3 C 4,8 km/h (1 Bft) 100 %
01.02.2017 04:20 -0,3 C -0,3 C -0,2 C 90 % 1018,4 hPa 0,0 l/m 0,0 km/h (0 Bft) NO 45 0 min 0,000 mm 0 W/m -1,7 C -0,3 C 1,6 km/h (1 Bft) 100 %
01.02.2017 04:30 -0,3 C -0,3 C -0,3 C 90 % 1018,4 hPa 0,0 l/m 0,0 km/h (0 Bft) N 0 0 min 0,000 mm 0 W/m -1,7 C -0,3 C 0,0 km/h (0 Bft) 91 %
01.02.2017 04:40 -0,3 C -0,3 C -0,3 C 90 % 1018,4 hPa 0,0 l/m 0,0 km/h (0 Bft) NO 45 0 min 0,000 mm 0 W/m -1,7 C -0,3 C 3,2 km/h (1 Bft) 100 %
01.02.2017 04:50 -0,3 C -0,3 C -0,3 C 90 % 1018,2 hPa 0,0 l/m 0,0 km/h (0 Bft) O-NO 67 0 min 0,000 mm 0 W/m -1,7 C -0,3 C 4,8 km/h (1 Bft) 100 %
01.02.2017 05:00 -0,2 C -0,3 C -0,2 C 90 % 1018,2 hPa 0,0 l/m 0,0 km/h (0 Bft) N 0 0 min 0,000 mm 0 W/m -1,6 C -0,2 C 0,0 km/h (0 Bft) 100 %
01.02.2017 05:10 -0,3 C -0,3 C -0,2 C 90 % 1018,2 hPa 0,0 l/m 0,0 km/h (0 Bft) O-NO 67 0 min 0,000 mm 0 W/m -1,7 C -0,3 C 1,6 km/h (1 Bft) 100 %
01.02.2017 05:20 -0,3 C -0,3 C -0,3 C 90 % 1018,2 hPa 0,0 l/m 0,0 km/h (0 Bft) N 0 0 min 0,000 mm 0 W/m -1,7 C -0,3 C 0,0 km/h (0 Bft) 100 %
01.02.2017 05:30 -0,4 C -0,4 C -0,3 C 90 % 1018,1 hPa 0,0 l/m 0,0 km/h (0 Bft) O-NO 67 0 min 0,000 mm 0 W/m -1,8 C -0,4 C 4,8 km/h (1 Bft) 100 %
01.02.2017 05:40 -0,5 C -0,5 C -0,4 C 90 % 1018,1 hPa 0,0 l/m 0,0 km/h (0 Bft) O-NO 67 0 min 0,000 mm 0 W/m -1,9 C -0,5 C 4,8 km/h (1 Bft) 100 %
01.02.2017 05:50 -0,4 C -0,5 C -0,4 C 91 % 1018,2 hPa 0,0 l/m 1,6 km/h (1 Bft) O-NO 67 0 min 0,000 mm 0 W/m -1,7 C -0,4 C 6,4 km/h (2 Bft) 90 %
01.02.2017 06:00 -0,2 C -0,4 C -0,2 C 91 % 1018,0 hPa 0,0 l/m 0,0 km/h (0 Bft) O-NO 67 0 min 0,000 mm 0 W/m -1,5 C -0,2 C 3,2 km/h (1 Bft) 100 %
01.02.2017 06:10 -0,1 C -0,2 C -0,1 C 91 % 1018,1 hPa 0,0 l/m 0,0 km/h (0 Bft) N 0 0 min 0,000 mm 0 W/m -1,4 C -0,1 C 0,0 km/h (0 Bft) 100 %
01.02.2017 06:20 -0,1 C -0,1 C -0,1 C 91 % 1018,1 hPa 0,0 l/m 0,0 km/h (0 Bft) O-NO 67 0 min 0,000 mm 0 W/m -1,4 C -0,1 C 1,6 km/h (1 Bft) 100 %
01.02.2017 06:30 0,0 C -0,1 C 0,1 C 91 % 1018,2 hPa 0,0 l/m 0,0 km/h (0 Bft) O 90 0 min 0,000 mm 0 W/m -1,3 C 0,0 C 4,8 km/h (1 Bft) 100 %
01.02.2017 06:40 0,2 C 0,1 C 0,2 C 91 % 1018,2 hPa 0,0 l/m 0,0 km/h (0 Bft) O 90 0 min 0,000 mm 0 W/m -1,1 C 0,2 C 4,8 km/h (1 Bft) 99 %
01.02.2017 06:50 0,3 C 0,2 C 0,3 C 90 % 1018,2 hPa 0,0 l/m 0,0 km/h (0 Bft) O 90 0 min 0,000 mm 0 W/m -1,1 C 0,3 C 1,6 km/h (1 Bft) 100 %
01.02.2017 07:00 0,4 C 0,3 C 0,4 C 90 % 1018,3 hPa 0,0 l/m 0,0 km/h (0 Bft) N 0 0 min 0,000 mm 0 W/m -1,0 C 0,4 C 0,0 km/h (0 Bft) 100 %
01.02.2017 07:10 0,4 C 0,4 C 0,4 C 90 % 1018,4 hPa 0,0 l/m 0,0 km/h (0 Bft) O-NO 67 0 min 0,000 mm 0 W/m -1,0 C 0,4 C 4,8 km/h (1 Bft) 100 %
01.02.2017 07:20 0,5 C 0,4 C 0,5 C 90 % 1018,4 hPa 0,0 l/m 1,6 km/h (1 Bft) NO 45 0 min 0,000 mm 0 W/m -0,9 C 0,5 C 6,4 km/h (2 Bft) 90 %
01.02.2017 07:30 0,6 C 0,5 C 0,6 C 90 % 1018,4 hPa 0,0 l/m 0,0 km/h (0 Bft) NO 45 0 min 0,000 mm 0 W/m -0,8 C 0,6 C 6,4 km/h (2 Bft) 100 %
01.02.2017 07:40 0,6 C 0,6 C 0,6 C 90 % 1018,4 hPa 0,0 l/m 0,0 km/h (0 Bft) O-NO 67 0 min 0,000 mm 0 W/m -0,8 C 0,6 C 4,8 km/h (1 Bft) 100 %
01.02.2017 07:50 0,6 C 0,6 C 0,6 C 90 % 1018,5 hPa 0,0 l/m 0,0 km/h (0 Bft) NO 45 0 min 0,000 mm 0 W/m -0,8 C 0,6 C 8,0 km/h (2 Bft) 100 %
01.02.2017 08:00 0,7 C 0,6 C 0,7 C 90 % 1018,5 hPa 0,0 l/m 0,0 km/h (0 Bft) O-NO 67 0 min 0,000 mm 0 W/m -0,7 C 0,7 C 11,3 km/h (2 Bft) 100 %
01.02.2017 08:10 0,8 C 0,7 C 0,8 C 89 % 1018,5 hPa 0,0 l/m 1,6 km/h (1 Bft) O-NO 67 0 min 0,000 mm 5 W/m -0,8 C 0,8 C 4,8 km/h (1 Bft) 100 %
01.02.2017 08:20 0,8 C 0,8 C 0,8 C 89 % 1018,5 hPa 0,0 l/m 0,0 km/h (0 Bft) O 90 0 min 0,000 mm 9 W/m -0,8 C 0,8 C 6,4 km/h (2 Bft) 100 %
01.02.2017 08:30 0,8 C 0,8 C 0,8 C 89 % 1018,4 hPa 0,0 l/m 0,0 km/h (0 Bft) O-NO 67 0 min 0,000 mm 14 W/m -0,8 C 0,8 C 3,2 km/h (1 Bft) 100 %
01.02.2017 08:40 0,9 C 0,8 C 0,9 C 89 % 1018,3 hPa 0,0 l/m 0,0 km/h (0 Bft) O 90 0 min 0,000 mm 23 W/m -0,7 C 0,9 C 8,0 km/h (2 Bft) 100 %
01.02.2017 08:50 1,0 C 0,9 C 1,0 C 89 % 1018,3 hPa 0,0 l/m 1,6 km/h (1 Bft) O 90 0 min 0,000 mm 32 W/m -0,6 C 1,0 C 14,5 km/h (3 Bft) 91 %
01.02.2017 09:00 1,1 C 1,0 C 1,1 C 89 % 1018,2 hPa 0,0 l/m 0,0 km/h (0 Bft) NO 45 0 min 0,000 mm 47 W/m -0,5 C 1,1 C 4,8 km/h (1 Bft) 100 %
01.02.2017 09:10 1,2 C 1,1 C 1,2 C 89 % 1018,2 hPa 0,0 l/m 0,0 km/h (0 Bft) O 90 0 min 0,000 mm 53 W/m -0,4 C 1,2 C 9,7 km/h (2 Bft) 100 %
01.02.2017 09:20 1,3 C 1,2 C 1,3 C 89 % 1018,2 hPa 0,0 l/m 1,6 km/h (1 Bft) O 90 0 min 0,000 mm 60 W/m -0,3 C 1,3 C 8,0 km/h (2 Bft) 100 %
01.02.2017 09:30 1,4 C 1,3 C 1,4 C 88 % 1018,3 hPa 0,0 l/m 0,0 km/h (0 Bft) NO 45 0 min 0,000 mm 63 W/m -0,4 C 1,4 C 8,0 km/h (2 Bft) 100 %
01.02.2017 09:40 1,4 C 1,4 C 1,4 C 88 % 1018,3 hPa 0,0 l/m 1,6 km/h (1 Bft) O-NO 67 0 min 0,000 mm 67 W/m -0,4 C 1,4 C 8,0 km/h (2 Bft) 100 %
01.02.2017 09:50 1,6 C 1,4 C 1,6 C 88 % 1018,3 hPa 0,0 l/m 0,0 km/h (0 Bft) NO 45 0 min 0,000 mm 91 W/m -0,2 C 1,6 C 4,8 km/h (1 Bft) 100 %
01.02.2017 10:00 1,7 C 1,5 C 1,7 C 88 % 1018,3 hPa 0,0 l/m 0,0 km/h (0 Bft) O-NO 67 0 min 0,025 mm 98 W/m -0,1 C 1,7 C 6,4 km/h (2 Bft) 100 %
01.02.2017 10:10 1,8 C 1,7 C 1,8 C 88 % 1018,3 hPa 0,0 l/m 1,6 km/h (1 Bft) O 90 0 min 0,000 mm 88 W/m 0,0 C 1,8 C 11,3 km/h (2 Bft) 100 %
01.02.2017 10:20 1,9 C 1,8 C 1,9 C 87 % 1018,4 hPa 0,0 l/m 1,6 km/h (1 Bft) O 90 0 min 0,000 mm 104 W/m -0,0 C 1,9 C 16,1 km/h (3 Bft) 88 %
01.02.2017 10:30 2,1 C 1,9 C 2,1 C 88 % 1018,5 hPa 0,0 l/m 0,0 km/h (0 Bft) SO 135 0 min 0,000 mm 104 W/m 0,3 C 2,1 C 8,0 km/h (2 Bft) 100 %
01.02.2017 10:40 2,2 C 2,1 C 2,2 C 87 % 1018,5 hPa 0,0 l/m 0,0 km/h (0 Bft) SO 135 0 min 0,000 mm 93 W/m 0,3 C 2,2 C 6,4 km/h (2 Bft) 100 %
01.02.2017 10:50 2,3 C 2,2 C 2,3 C 87 % 1018,4 hPa 0,0 l/m 1,6 km/h (1 Bft) S-SW 202 0 min 0,000 mm 109 W/m 0,4 C 2,3 C 6,4 km/h (2 Bft) 100 %
01.02.2017 11:00 2,5 C 2,3 C 2,5 C 87 % 1018,5 hPa 0,0 l/m 0,0 km/h (0 Bft) SO 135 0 min 0,025 mm 148 W/m 0,6 C 2,5 C 3,2 km/h (1 Bft) 100 %
01.02.2017 11:10 2,7 C 2,5 C 2,7 C 86 % 1018,5 hPa 0,0 l/m 1,6 km/h (1 Bft) W-SW 247 10 min 0,000 mm 197 W/m 0,6 C 2,7 C 8,0 km/h (2 Bft) 100 %
01.02.2017 11:20 3,1 C 2,8 C 3,1 C 86 % 1018,4 hPa 0,0 l/m 0,0 km/h (0 Bft) S-SW 202 10 min 0,000 mm 197 W/m 1,0 C 3,1 C 3,2 km/h (1 Bft) 100 %
01.02.2017 11:30 3,3 C 2,8 C 3,3 C 85 % 1018,3 hPa 0,0 l/m 4,4 km/h (1 Bft) O-SO 109 10 min 0,001 mm 190 W/m 1,0 C 3,3 C 9,7 km/h (2 Bft) 100 %
01.02.2017 11:40 3,5 C 3,3 C 3,5 C 84 % 1018,2 hPa 0,0 l/m 1,4 km/h (1 Bft) O-NO 57 10 min 0,000 mm 176 W/m 1,1 C 3,5 C 6,4 km/h (2 Bft) 100 %
01.02.2017 11:50 3,7 C 3,5 C 3,7 C 84 % 1018,1 hPa 0,0 l/m 3,3 km/h (1 Bft) O-NO 65 10 min 0,000 mm 227 W/m 1,3 C 3,7 C 12,9 km/h (3 Bft) 100 %
01.02.2017 12:00 3,9 C 3,7 C 3,9 C 84 % 1018,1 hPa 0,0 l/m 2,0 km/h (1 Bft) O-SO 121 10 min 0,000 mm 213 W/m 1,4 C 3,9 C 11,3 km/h (2 Bft) 100 %
01.02.2017 12:10 4,3 C 3,9 C 4,3 C 84 % 1018,0 hPa 0,0 l/m 0,0 km/h (0 Bft) SO 126 10 min 0,076 mm 229 W/m 1,8 C 4,3 C 0,0 km/h (0 Bft) 100 %
01.02.2017 12:20 4,7 C 4,3 C 4,7 C 83 % 1017,9 hPa 0,0 l/m 0,0 km/h (0 Bft) SO 124 10 min 0,000 mm 339 W/m 2,1 C 4,7 C 1,6 km/h (1 Bft) 100 %
01.02.2017 12:30 4,9 C 4,7 C 4,9 C 83 % 1017,6 hPa 0,0 l/m 0,1 km/h (0 Bft) O-SO 118 10 min 0,000 mm 221 W/m 2,3 C 4,9 C 3,2 km/h (1 Bft) 100 %
01.02.2017 12:40 5,2 C 4,9 C 5,2 C 82 % 1017,6 hPa 0,0 l/m 0,4 km/h (0 Bft) O-SO 109 10 min 0,000 mm 248 W/m 2,4 C 5,2 C 4,8 km/h (1 Bft) 100 %
01.02.2017 12:50 5,5 C 5,2 C 5,5 C 81 % 1017,4 hPa 0,0 l/m 0,9 km/h (0 Bft) O-NO 74 10 min 0,000 mm 272 W/m 2,5 C 5,5 C 8,0 km/h (2 Bft) 100 %
01.02.2017 13:00 5,8 C 5,5 C 5,8 C 80 % 1017,3 hPa 0,0 l/m 0,5 km/h (0 Bft) SO 135 10 min 0,000 mm 200 W/m 2,6 C 5,8 C 6,4 km/h (2 Bft) 100 %
01.02.2017 13:10 5,9 C 5,8 C 6,0 C 79 % 1017,3 hPa 0,0 l/m 1,6 km/h (1 Bft) N-NW 346 10 min 0,127 mm 185 W/m 2,5 C 5,9 C 6,4 km/h (2 Bft) 100 %
01.02.2017 13:20 5,7 C 5,7 C 5,9 C 79 % 1017,3 hPa 0,0 l/m 3,8 km/h (1 Bft) SO 129 10 min 0,000 mm 200 W/m 2,3 C 5,7 C 9,7 km/h (2 Bft) 100 %
01.02.2017 13:30 5,7 C 5,6 C 5,7 C 80 % 1017,2 hPa 0,0 l/m 1,3 km/h (1 Bft) SO 144 10 min 0,000 mm 265 W/m 2,5 C 5,7 C 8,0 km/h (2 Bft) 100 %
01.02.2017 13:40 5,9 C 5,7 C 5,9 C 80 % 1016,7 hPa 0,0 l/m 0,6 km/h (0 Bft) O-SO 103 10 min 0,000 mm 192 W/m 2,7 C 5,9 C 6,4 km/h (2 Bft) 100 %
01.02.2017 13:50 6,0 C 5,9 C 6,0 C 79 % 1016,7 hPa 0,0 l/m 0,0 km/h (0 Bft) O-SO 102 10 min 0,000 mm 165 W/m 2,6 C 6,0 C 1,6 km/h (1 Bft) 100 %
01.02.2017 14:00 6,0 C 5,9 C 6,0 C 80 % 1016,6 hPa 0,0 l/m 0,7 km/h (0 Bft) O-SO 103 0 min 0,076 mm 148 W/m 2,8 C 6,0 C 6,4 km/h (2 Bft) 100 %
01.02.2017 14:10 5,9 C 5,9 C 6,0 C 81 % 1016,6 hPa 0,0 l/m 0,0 km/h (0 Bft) O-SO 103 0 min 0,000 mm 118 W/m 2,9 C 5,9 C 0,0 km/h (0 Bft) 100 %
01.02.2017 14:20 5,9 C 5,9 C 5,9 C 81 % 1016,5 hPa 0,0 l/m 0,0 km/h (0 Bft) O-SO 103 0 min 0,000 mm 142 W/m 2,9 C 5,9 C 0,0 km/h (0 Bft) 100 %
01.02.2017 14:30 6,0 C 5,9 C 6,1 C 81 % 1016,6 hPa 0,0 l/m 0,4 km/h (0 Bft) O-NO 69 0 min 0,000 mm 142 W/m 3,0 C 6,0 C 4,8 km/h (1 Bft) 100 %
01.02.2017 14:40 6,2 C 6,0 C 6,2 C 80 % 1016,4 hPa 0,0 l/m 0,3 km/h (0 Bft) O-NO 69 10 min 0,000 mm 174 W/m 3,0 C 6,2 C 3,2 km/h (1 Bft) 100 %
01.02.2017 14:50 6,3 C 6,2 C 6,3 C 81 % 1016,4 hPa 0,0 l/m 0,7 km/h (0 Bft) N-NO 19 10 min 0,000 mm 357 W/m 3,3 C 6,3 C 4,8 km/h (1 Bft) 100 %
01.02.2017 15:00 6,4 C 6,3 C 6,4 C 79 % 1016,6 hPa 0,0 l/m 0,3 km/h (0 Bft) O-SO 115 0 min 0,076 mm 63 W/m 3,0 C 6,4 C 6,4 km/h (2 Bft) 100 %
01.02.2017 15:10 6,3 C 6,3 C 6,4 C 79 % 1016,5 hPa 0,0 l/m 0,9 km/h (0 Bft) O 98 0 min 0,000 mm 54 W/m 2,9 C 6,3 C 6,4 km/h (2 Bft) 100 %
01.02.2017 15:20 6,1 C 6,1 C 6,3 C 79 % 1016,6 hPa 0,0 l/m 1,8 km/h (1 Bft) O 98 0 min 0,000 mm 53 W/m 2,7 C 6,1 C 8,0 km/h (2 Bft) 100 %
01.02.2017 15:30 6,0 C 6,0 C 6,1 C 80 % 1016,6 hPa 0,0 l/m 0,4 km/h (0 Bft) O 95 0 min 0,000 mm 54 W/m 2,8 C 6,0 C 6,4 km/h (2 Bft) 100 %
01.02.2017 15:40 5,9 C 5,9 C 6,0 C 80 % 1016,6 hPa 0,0 l/m 0,0 km/h (0 Bft) O 95 0 min 0,000 mm 63 W/m 2,7 C 5,9 C 1,6 km/h (1 Bft) 100 %
01.02.2017 15:50 5,9 C 5,9 C 5,9 C 81 % 1016,5 hPa 0,0 l/m 0,4 km/h (0 Bft) O-SO 105 0 min 0,000 mm 56 W/m 2,9 C 5,9 C 6,4 km/h (2 Bft) 100 %
01.02.2017 16:00 5,9 C 5,9 C 5,9 C 82 % 1016,3 hPa 0,0 l/m 0,0 km/h (0 Bft) O-SO 103 0 min 0,026 mm 63 W/m 3,1 C 5,9 C 0,0 km/h (0 Bft) 100 %
01.02.2017 16:10 5,8 C 5,8 C 5,9 C 83 % 1016,3 hPa 0,0 l/m 0,1 km/h (0 Bft) O-SO 103 0 min 0,000 mm 33 W/m 3,1 C 5,8 C 3,2 km/h (1 Bft) 100 %
01.02.2017 16:20 5,8 C 5,8 C 5,8 C 82 % 1016,1 hPa 0,0 l/m 1,3 km/h (1 Bft) O 84 0 min 0,000 mm 21 W/m 3,0 C 5,8 C 6,4 km/h (2 Bft) 100 %
01.02.2017 16:30 5,8 C 5,8 C 5,8 C 82 % 1016,1 hPa 0,0 l/m 0,4 km/h (0 Bft) O 90 0 min 0,000 mm 14 W/m 3,0 C 5,8 C 4,8 km/h (1 Bft) 100 %
01.02.2017 16:40 5,7 C 5,7 C 5,8 C 83 % 1016,1 hPa 0,0 l/m 1,1 km/h (1 Bft) O 88 0 min 0,000 mm 12 W/m 3,0 C 5,7 C 8,0 km/h (2 Bft) 100 %
01.02.2017 16:50 5,6 C 5,6 C 5,7 C 83 % 1016,1 hPa 0,0 l/m 1,2 km/h (1 Bft) SO 125 0 min 0,000 mm 11 W/m 2,9 C 5,6 C 8,0 km/h (2 Bft) 100 %
01.02.2017 17:00 5,5 C 5,5 C 5,6 C 83 % 1016,0 hPa 0,0 l/m 1,4 km/h (1 Bft) O-SO 102 0 min 0,000 mm 7 W/m 2,8 C 5,5 C 8,0 km/h (2 Bft) 100 %
01.02.2017 17:10 5,3 C 5,3 C 5,5 C 84 % 1016,1 hPa 0,0 l/m 2,6 km/h (1 Bft) O-SO 117 0 min 0,000 mm 0 W/m 2,8 C 5,3 C 11,3 km/h (2 Bft) 100 %
01.02.2017 17:20 5,2 C 5,2 C 5,3 C 84 % 1015,9 hPa 0,0 l/m 0,7 km/h (0 Bft) SO 128 0 min 0,000 mm 0 W/m 2,7 C 5,2 C 4,8 km/h (1 Bft) 91 %
01.02.2017 17:30 5,1 C 5,1 C 5,2 C 84 % 1015,9 hPa 0,0 l/m 1,0 km/h (0 Bft) O 100 0 min 0,000 mm 0 W/m 2,6 C 5,1 C 8,0 km/h (2 Bft) 100 %
01.02.2017 17:40 4,9 C 4,9 C 5,1 C 85 % 1015,9 hPa 0,0 l/m 0,0 km/h (0 Bft) O 96 0 min 0,000 mm 0 W/m 2,6 C 4,9 C 1,6 km/h (1 Bft) 100 %
01.02.2017 17:50 4,8 C 4,8 C 4,9 C 85 % 1016,0 hPa 0,0 l/m 0,0 km/h (0 Bft) O 93 0 min 0,000 mm 0 W/m 2,5 C 4,8 C 1,6 km/h (1 Bft) 100 %
01.02.2017 18:00 4,8 C 4,7 C 4,8 C 85 % 1016,1 hPa 0,0 l/m 0,1 km/h (0 Bft) O-SO 117 0 min 0,000 mm 0 W/m 2,5 C 4,8 C 4,8 km/h (1 Bft) 100 %
01.02.2017 18:10 4,6 C 4,6 C 4,8 C 86 % 1016,1 hPa 0,0 l/m 0,1 km/h (0 Bft) O-SO 122 0 min 0,000 mm 0 W/m 2,5 C 4,6 C 3,2 km/h (1 Bft) 100 %
01.02.2017 18:20 4,6 C 4,6 C 4,7 C 86 % 1016,3 hPa 0,0 l/m 0,0 km/h (0 Bft) O-SO 120 0 min 0,000 mm 0 W/m 2,5 C 4,6 C 1,6 km/h (1 Bft) 100 %
01.02.2017 18:30 4,5 C 4,5 C 4,6 C 86 % 1016,2 hPa 0,0 l/m 0,0 km/h (0 Bft) O-SO 120 0 min 0,000 mm 0 W/m 2,4 C 4,5 C 0,0 km/h (0 Bft) 100 %
01.02.2017 18:40 4,4 C 4,4 C 4,5 C 86 % 1016,3 hPa 0,0 l/m 0,0 km/h (0 Bft) O-SO 117 0 min 0,000 mm 0 W/m 2,3 C 4,4 C 0,0 km/h (0 Bft) 100 %
01.02.2017 18:50 4,3 C 4,3 C 4,4 C 87 % 1016,2 hPa 0,0 l/m 0,0 km/h (0 Bft) O-SO 117 0 min 0,000 mm 0 W/m 2,3 C 4,3 C 0,0 km/h (0 Bft) 100 %
01.02.2017 19:00 4,2 C 4,2 C 4,3 C 87 % 1016,1 hPa 0,0 l/m 0,0 km/h (0 Bft) O-SO 117 0 min 0,000 mm 0 W/m 2,2 C 4,2 C 1,6 km/h (1 Bft) 100 %
01.02.2017 19:10 4,1 C 4,1 C 4,2 C 88 % 1015,9 hPa 0,0 l/m 0,0 km/h (0 Bft) O-SO 117 0 min 0,000 mm 0 W/m 2,3 C 4,1 C 0,0 km/h (0 Bft) 100 %
01.02.2017 19:20 4,1 C 4,1 C 4,1 C 88 % 1016,1 hPa 0,0 l/m 0,0 km/h (0 Bft) O-SO 117 0 min 0,000 mm 0 W/m 2,3 C 4,1 C 0,0 km/h (0 Bft) 91 %
01.02.2017 19:30 4,0 C 4,0 C 4,1 C 88 % 1016,1 hPa 0,0 l/m 0,0 km/h (0 Bft) O-SO 117 0 min 0,000 mm 0 W/m 2,2 C 4,0 C 0,0 km/h (0 Bft) 100 %
01.02.2017 19:40 3,9 C 3,9 C 4,0 C 88 % 1016,0 hPa 0,0 l/m 0,0 km/h (0 Bft) O-SO 117 0 min 0,000 mm 0 W/m 2,1 C 3,9 C 0,0 km/h (0 Bft) 100 %
01.02.2017 19:50 3,9 C 3,9 C 3,9 C 88 % 1015,8 hPa 0,0 l/m 0,0 km/h (0 Bft) O-SO 114 0 min 0,000 mm 0 W/m 2,1 C 3,9 C 0,0 km/h (0 Bft) 100 %
01.02.2017 20:00 3,8 C 3,8 C 3,9 C 89 % 1015,6 hPa 0,0 l/m 0,3 km/h (0 Bft) O 85 0 min 0,000 mm 0 W/m 2,2 C 3,8 C 6,4 km/h (2 Bft) 100 %
01.02.2017 20:10 3,9 C 3,8 C 3,9 C 89 % 1015,3 hPa 0,0 l/m 0,1 km/h (0 Bft) O 83 0 min 0,000 mm 0 W/m 2,3 C 3,9 C 4,8 km/h (1 Bft) 91 %
01.02.2017 20:20 3,8 C 3,8 C 3,9 C 89 % 1015,4 hPa 0,0 l/m 0,2 km/h (0 Bft) O 81 0 min 0,000 mm 0 W/m 2,2 C 3,8 C 3,2 km/h (1 Bft) 100 %
01.02.2017 20:30 3,8 C 3,8 C 3,9 C 90 % 1015,4 hPa 0,0 l/m 0,5 km/h (0 Bft) S 190 0 min 0,000 mm 0 W/m 2,3 C 3,8 C 4,8 km/h (1 Bft) 100 %
01.02.2017 20:40 3,8 C 3,8 C 3,8 C 90 % 1015,6 hPa 0,0 l/m 0,0 km/h (0 Bft) S-SW 200 0 min 0,000 mm 0 W/m 2,3 C 3,8 C 1,6 km/h (1 Bft) 100 %
01.02.2017 20:50 3,7 C 3,7 C 3,8 C 90 % 1015,6 hPa 0,0 l/m 0,0 km/h (0 Bft) S-SW 200 0 min 0,000 mm 0 W/m 2,2 C 3,7 C 0,0 km/h (0 Bft) 100 %
01.02.2017 21:00 3,6 C 3,6 C 3,7 C 90 % 1015,5 hPa 0,0 l/m 0,5 km/h (0 Bft) S-SW 199 0 min 0,000 mm 0 W/m 2,1 C 3,6 C 3,2 km/h (1 Bft) 94 %
01.02.2017 21:10 3,4 C 3,4 C 3,6 C 91 % 1015,5 hPa 0,0 l/m 0,0 km/h (0 Bft) S-SW 202 0 min 0,000 mm 0 W/m 2,1 C 3,4 C 1,6 km/h (1 Bft) 97 %
01.02.2017 21:20 3,4 C 3,4 C 3,4 C 91 % 1015,6 hPa 0,0 l/m 0,0 km/h (0 Bft) N 0 0 min 0,000 mm 0 W/m 2,1 C 3,4 C 0,0 km/h (0 Bft) 96 %
01.02.2017 21:30 3,3 C 3,3 C 3,4 C 91 % 1015,4 hPa 0,0 l/m 0,0 km/h (0 Bft) N 0 0 min 0,000 mm 0 W/m 2,0 C 3,3 C 0,0 km/h (0 Bft) 98 %
01.02.2017 21:40 3,2 C 3,2 C 3,3 C 91 % 1015,5 hPa 0,0 l/m 0,0 km/h (0 Bft) N 0 0 min 0,000 mm 0 W/m 1,9 C 3,2 C 0,0 km/h (0 Bft) 88 %
01.02.2017 21:50 3,1 C 3,0 C 3,2 C 91 % 1015,4 hPa 0,0 l/m 0,0 km/h (0 Bft) N 0 0 min 0,000 mm 0 W/m 1,8 C 3,1 C 0,0 km/h (0 Bft) 98 %
01.02.2017 22:00 2,8 C 2,8 C 3,0 C 91 % 1015,4 hPa 0,0 l/m 0,0 km/h (0 Bft) N 0 0 min 0,000 mm 0 W/m 1,5 C 2,8 C 0,0 km/h (0 Bft) 98 %
01.02.2017 22:10 2,6 C 2,6 C 2,8 C 91 % 1015,4 hPa 0,0 l/m 0,0 km/h (0 Bft) N 0 0 min 0,000 mm 0 W/m 1,3 C 2,6 C 0,0 km/h (0 Bft) 98 %
01.02.2017 22:20 2,3 C 2,3 C 2,6 C 91 % 1015,4 hPa 0,0 l/m 0,0 km/h (0 Bft) N 0 0 min 0,000 mm 0 W/m 1,0 C 2,3 C 0,0 km/h (0 Bft) 98 %
01.02.2017 22:30 2,2 C 2,2 C 2,3 C 91 % 1015,5 hPa 0,0 l/m 0,0 km/h (0 Bft) N 0 0 min 0,000 mm 0 W/m 0,9 C 2,2 C 0,0 km/h (0 Bft) 98 %
01.02.2017 22:40 2,1 C 2,1 C 2,2 C 92 % 1015,5 hPa 0,0 l/m 0,0 km/h (0 Bft) N 0 0 min 0,000 mm 0 W/m 0,9 C 2,1 C 0,0 km/h (0 Bft) 98 %
01.02.2017 22:50 2,1 C 2,1 C 2,1 C 92 % 1015,4 hPa 0,0 l/m 0,0 km/h (0 Bft) N 0 0 min 0,000 mm 0 W/m 0,9 C 2,1 C 0,0 km/h (0 Bft) 98 %
01.02.2017 23:00 2,0 C 2,0 C 2,1 C 92 % 1015,4 hPa 0,0 l/m 0,0 km/h (0 Bft) N 0 0 min 0,000 mm 0 W/m 0,8 C 2,0 C 0,0 km/h (0 Bft) 98 %
01.02.2017 23:10 2,0 C 2,0 C 2,0 C 92 % 1015,4 hPa 0,0 l/m 0,0 km/h (0 Bft) N 0 0 min 0,000 mm 0 W/m 0,8 C 2,0 C 0,0 km/h (0 Bft) 98 %
01.02.2017 23:20 2,0 C 2,0 C 2,0 C 92 % 1015,3 hPa 0,0 l/m 0,0 km/h (0 Bft) N 0 0 min 0,000 mm 0 W/m 0,8 C 2,0 C 0,0 km/h (0 Bft) 87 %
01.02.2017 23:30 2,1 C 2,0 C 2,1 C 92 % 1015,3 hPa 0,0 l/m 0,0 km/h (0 Bft) N 0 0 min 0,000 mm 0 W/m 0,9 C 2,1 C 0,0 km/h (0 Bft) 97 %
01.02.2017 23:40 2,0 C 2,0 C 2,1 C 92 % 1015,1 hPa 0,0 l/m 0,0 km/h (0 Bft) N 0 0 min 0,000 mm 0 W/m 0,8 C 2,0 C 0,0 km/h (0 Bft) 97 %
01.02.2017 23:50 2,0 C 2,0 C 2,0 C 92 % 1014,9 hPa 0,0 l/m 0,0 km/h (0 Bft) N 0 0 min 0,000 mm 0 W/m 0,8 C 2,0 C 0,0 km/h (0 Bft) 98 %
_ Min-Zeit 05:40 05:40 05:40 13:10 23:50 - 00:00 - - - - - 05:40 05:40 00:00 00:30
Minimum _ -0,5 C -0,5 C -0,4 C 79 % 1014,9 hPa - 0,0 km/h (0 Bft) - - - - - -1,9 C -0,5 C 0,0 km/h (0 Bft) 87 %
_ Max-Zeit 15:00 15:00 15:00 22:40 00:10 00:00 11:30 - - 11:10 13:10 14:50 14:50 15:00 10:20 03:00
Maximum _ 6,4 C 6,3 C 6,4 C 92 % 1018,7 hPa 0,0 l/m 4,4 km/h
O-SO (1 Bft)
- - 10 min 0,127 mm 357 W/m 3,3 C 6,4 C 16,1 km/h
NO (3 Bft)
100 %
Durchschnitt _ 2,6 C 2,5 C 2,7 C 87 % 1017,3 hPa #0,0 l/m 0,4 km/h (0 Bft) O - #3:10 h #0,432 mm 121 W/m 0,7 C 2,6 C 3,7 km/h (1 Bft) 99 %
PRIVATE WETTERSTATION BILLIGHEIM-ALLFELD - www.neckar-odenwald-wetter.de - Holger Sonntag